Weather History for KCGC - October, 2012

Change the Weather History Date:

Wednesday, October 31, 2012

  Actual Average (KBKV) Record (KBKV)
Temperature  
Mean Temperature 54 °F -  
Max Temperature 68 °F 78 °F 86 °F (1999)
Min Temperature 41 °F 55 °F 45 °F (2012)
Degree Days  
Heating Degree Days 10    
Growing Degree Days 4 (Base 50)    
Moisture  
Dew Point 44 °F    
Average Humidity 65    
Maximum Humidity 100    
Minimum Humidity 34    
Precipitation  
Precipitation 0.00 in - - ()
Sea Level Pressure  
Sea Level Pressure 30.01 in    
Wind  
Wind Speed 4 mph (WNW)    
Max Wind Speed 13 mph    
Max Gust Speed 20 mph    
Visibility 10 miles    
Events      
Averages and records for this station are not official NWS values.
T = Trace of Precipitation, MM = Missing Value Source: NWS Daily Summary

Daily Weather History Graph

Daily Weather History Graph

Search for Another Location

Airport or City:

Trip Planner

Search our weather history database for the weather conditions in past years. The results will help you decide how hot, cold, wet, or windy it might be!

Date:

Astronomy

Oct. 31, 2012 Rise Set
Actual Time 7:42 AM EDT 6:45 PM EDT
Civil Twilight 7:17 AM EDT 7:09 PM EDT
Nautical Twilight 6:49 AM EDT 7:37 PM EDT
Astronomical Twilight 6:22 AM EDT 8:05 PM EDT
Moon 8:04 PM EDT (10/31) 9:13 AM EDT (10/31)
Length of Visible Light 11h 51m
Length of Day
11h 02m
Full, 97% of the Moon is Illuminated
Oct 31
Full
Nov 6
Last Quarter
Nov 13
New
Nov 20
First Quarter
Nov 28
Full

Hourly Weather History & Observations

Time (EDT) Temp. Dew Point Humidity Pressure Visibility Wind Dir Wind Speed Gust Speed Precip Events Conditions
12:15 AM 60.8 °F 46.4 °F 59% 29.97 in 10.0 mi WNW 5.8 mph - N/A   Clear
12:35 AM 59.0 °F 46.4 °F 63% 29.97 in 10.0 mi NW 5.8 mph - N/A   Clear
12:55 AM 59.0 °F 44.6 °F 59% 29.97 in 10.0 mi NW 5.8 mph - N/A   Clear
1:15 AM 59.0 °F 44.6 °F 59% 29.97 in 10.0 mi NW 4.6 mph - N/A   Clear
1:35 AM 57.2 °F 42.8 °F 59% 29.97 in 10.0 mi NNW 4.6 mph - N/A   Clear
1:55 AM 55.4 °F 41.0 °F 58% 29.97 in 10.0 mi NNW 5.8 mph - N/A   Clear
2:15 AM 55.4 °F 41.0 °F 58% 29.97 in 10.0 mi Calm Calm - N/A   Clear
2:35 AM 55.4 °F 41.0 °F 58% 29.98 in 10.0 mi Calm Calm - N/A   Clear
2:55 AM 53.6 °F 39.2 °F 58% 29.98 in 10.0 mi Calm Calm - N/A   Clear
3:15 AM 48.2 °F 41.0 °F 76% 29.98 in 10.0 mi Calm Calm - N/A   Clear
3:35 AM 46.4 °F 41.0 °F 81% 29.98 in 10.0 mi Calm Calm - N/A   Clear
3:55 AM 46.4 °F 42.8 °F 87% 29.98 in 10.0 mi Calm Calm - N/A   Clear
4:15 AM 44.6 °F 41.0 °F 87% 29.98 in 10.0 mi Calm Calm - N/A   Clear
4:35 AM 44.6 °F 41.0 °F 87% 29.99 in 10.0 mi Calm Calm - N/A   Clear
4:55 AM 44.6 °F 41.0 °F 87% 29.99 in 10.0 mi Calm Calm - N/A   Clear
5:15 AM 42.8 °F 41.0 °F 93% 29.99 in 10.0 mi Calm Calm - N/A   Clear
5:35 AM 42.8 °F 41.0 °F 93% 30.00 in 10.0 mi Calm Calm - N/A   Clear
5:55 AM 42.8 °F 41.0 °F 93% 30.00 in 10.0 mi Calm Calm - N/A   Clear
6:15 AM 42.8 °F 41.0 °F 93% 30.01 in 10.0 mi Calm Calm - N/A   Clear
6:35 AM 42.8 °F 41.0 °F 93% 30.01 in 10.0 mi Calm Calm - N/A   Clear
6:55 AM 42.8 °F 41.0 °F 93% 30.02 in 10.0 mi Calm Calm - N/A   Clear
7:15 AM 42.8 °F 41.0 °F 93% 30.02 in 10.0 mi Calm Calm - N/A   Clear
7:35 AM 41.0 °F 41.0 °F 100% 30.03 in 10.0 mi Calm Calm - N/A   Clear
7:55 AM 42.8 °F 41.0 °F 93% 30.03 in 10.0 mi Calm Calm - N/A   Clear
8:15 AM 46.4 °F 41.0 °F 81% 30.04 in 10.0 mi Calm Calm - N/A   Clear
8:35 AM 51.8 °F 41.0 °F 67% 30.05 in 10.0 mi NNW 3.5 mph - N/A   Clear
8:55 AM 55.4 °F 41.0 °F 58% 30.05 in 10.0 mi NW 4.6 mph - N/A   Clear
9:15 AM 57.2 °F 39.2 °F 51% 30.06 in 10.0 mi NW 4.6 mph - N/A   Clear
9:35 AM 59.0 °F 37.4 °F 45% 30.06 in 10.0 mi NW 6.9 mph - N/A   Clear
9:55 AM 60.8 °F 35.6 °F 39% 30.07 in 10.0 mi NW 5.8 mph - N/A   Clear
10:15 AM 60.8 °F 35.6 °F 39% 30.07 in 10.0 mi NW 6.9 mph - N/A   Clear
10:35 AM 62.6 °F 35.6 °F 37% 30.07 in 10.0 mi NW 5.8 mph - N/A   Clear
10:55 AM 62.6 °F 33.8 °F 34% 30.07 in 10.0 mi WNW 6.9 mph - N/A   Clear
11:15 AM 64.4 °F 35.6 °F 34% 30.07 in 10.0 mi NW 6.9 mph - N/A   Clear
11:35 AM 64.4 °F 37.4 °F 37% 30.06 in 10.0 mi NW 6.9 mph - N/A   Clear
11:55 AM 66.2 °F 41.0 °F 40% 30.06 in 10.0 mi West 12.7 mph 17.3 mph N/A   Clear
12:15 PM 66.2 °F 41.0 °F 40% 30.06 in 10.0 mi WNW 9.2 mph 16.1 mph N/A   Clear
12:35 PM 66.2 °F 41.0 °F 40% 30.05 in 10.0 mi West 10.4 mph 19.6 mph N/A   Clear
12:55 PM 66.2 °F 42.8 °F 43% 30.05 in 10.0 mi West 12.7 mph 17.3 mph N/A   Clear
1:15 PM 66.2 °F 42.8 °F 43% 30.04 in 10.0 mi West 9.2 mph 16.1 mph N/A   Clear
1:35 PM 68.0 °F 42.8 °F 40% 30.03 in 10.0 mi West 11.5 mph 17.3 mph N/A   Clear
1:55 PM 68.0 °F 44.6 °F 43% 30.03 in 10.0 mi West 10.4 mph 18.4 mph N/A   Clear
2:15 PM 68.0 °F 44.6 °F 43% 30.02 in 10.0 mi West 11.5 mph 19.6 mph N/A   Clear
2:35 PM 68.0 °F 44.6 °F 43% 30.01 in 10.0 mi West 11.5 mph 18.4 mph N/A   Clear
2:55 PM 68.0 °F 44.6 °F 43% 30.00 in 10.0 mi WNW 6.9 mph 16.1 mph N/A   Clear
3:15 PM 68.0 °F 44.6 °F 43% 30.00 in 10.0 mi WNW 10.4 mph 19.6 mph N/A   Clear
3:35 PM 68.0 °F 46.4 °F 46% 29.99 in 10.0 mi WNW 8.1 mph 18.4 mph N/A   Clear
3:55 PM 68.0 °F 46.4 °F 46% 29.98 in 10.0 mi WNW 11.5 mph 18.4 mph N/A   Clear
4:15 PM 68.0 °F 46.4 °F 46% 29.98 in 10.0 mi West 11.5 mph 19.6 mph N/A   Clear
4:35 PM 68.0 °F 48.2 °F 49% 29.98 in 10.0 mi West 10.4 mph - N/A   Clear
4:55 PM 68.0 °F 48.2 °F 49% 29.98 in 10.0 mi WSW 10.4 mph - N/A   Clear
5:15 PM 68.0 °F 48.2 °F 49% 29.98 in 10.0 mi West 12.7 mph - N/A   Clear
5:35 PM 68.0 °F 46.4 °F 46% 29.98 in 10.0 mi West 10.4 mph - N/A   Clear
5:55 PM 66.2 °F 46.4 °F 49% 29.98 in 10.0 mi West 10.4 mph 17.3 mph N/A   Clear
6:15 PM 64.4 °F 48.2 °F 56% 29.98 in 10.0 mi West 6.9 mph - N/A   Clear
6:35 PM 64.4 °F 50.0 °F 59% 29.98 in 10.0 mi West 4.6 mph - N/A   Clear
6:55 PM 62.6 °F 50.0 °F 63% 29.98 in 10.0 mi Calm Calm - N/A   Clear
7:15 PM 60.8 °F 51.8 °F 72% 29.99 in 10.0 mi WSW 3.5 mph - N/A   Clear
7:55 PM 59.0 °F 51.8 °F 77% 29.99 in 10.0 mi WSW 3.5 mph - N/A   Clear
8:15 PM 59.0 °F 51.8 °F 77% 29.98 in 10.0 mi WSW 3.5 mph - N/A   Clear
8:35 PM 59.0 °F 51.8 °F 77% 29.99 in 10.0 mi WSW 3.5 mph - N/A   Clear
8:55 PM 59.0 °F 53.6 °F 82% 30.00 in 10.0 mi WSW 3.5 mph - N/A   Clear
9:15 PM 59.0 °F 53.6 °F 82% 30.01 in 10.0 mi WSW 3.5 mph - N/A   Clear
9:35 PM 59.0 °F 53.6 °F 82% 30.01 in 10.0 mi WSW 3.5 mph - N/A   Clear
9:55 PM 57.2 °F 53.6 °F 88% 30.01 in 10.0 mi Calm Calm - N/A   Clear
10:15 PM 55.4 °F 53.6 °F 94% 30.01 in 10.0 mi Calm Calm - N/A   Clear
10:35 PM 53.6 °F 51.8 °F 94% 30.02 in 10.0 mi Calm Calm - N/A   Clear
11:15 PM 53.6 °F 51.8 °F 94% 30.01 in 10.0 mi Calm Calm - N/A   Scattered Clouds
11:35 PM 51.8 °F 50.0 °F 94% 30.01 in 10.0 mi Calm Calm - N/A   Clear
11:55 PM 51.8 °F 51.8 °F 100% 30.02 in 10.0 mi Calm Calm - N/A   Clear